OpenBCM V2.0.2 (Linux)

Packet Radio Mailbox

IZ3LSV

[San Dona' di P. JN]

 Login: GUEST





  
LU9DCE > KEPS     16.03.18 18:13l 260 Lines 12912 Bytes #999 (0) @ WW
BID : 34391_LU9DCE
Read: GUEST
Subj: SAT TLE OF 16
Path: IZ3LSV<IR2UBX<EA2RCF<LU9DCE
Sent: 180316/1601Z @:LU9DCE.TOR.BA.ARG.SOAM #:34391 [TORTUGUITAS] FBB7.07
From: LU9DCE@LU9DCE.TOR.BA.ARG.SOAM
To  : KEPS@WW


            __    _  _  ___  ____   ___  ____    ____  ____  ____
           (  )  / )( \/ _ \(    \ / __)(  __)  (  _ \(  _ \/ ___)
           / (_/\) \/ (\__  )) D (( (__  ) _)    ) _ ( ) _ (\___ \
           \____/\____/(___/(____/ \___)(____)  (____/(____/(____/
               ESTACION DE PACKET RADIO - BUENOS AIRES (GF05OM)
                   BOLETINES INFORMATIVOS PROGRAMADOS (BIP)
                    LU9DCE@GMX.COM - RF 147070 @ 1200 BAUD
                           telnet lu9dce.dynu.com
             BBS port 6300 / NODE port 3694 / DXCLUSTER port 9000

+------------------------------------------------------------------------------+
OSCAR 7
1 07530U 74089B   18075.12460858 -.00000048  00000-0 -20366-4 0  9993
2 07530 101.6757  43.8829 0012182 153.8278 267.3267 12.53631612982930
OSCAR 11 (UoSAT 2)
1 14781U 84021B   18075.09090667  .00000101  00000-0  18649-4 0  9998
2 14781  97.6615 115.2177 0009275  37.0747 323.1106 14.82986889830642
OSCAR 19 (LUSAT)
1 20442U 90005G   18074.78164923 -.00000011  00000-0  12206-4 0  9994
2 20442  98.6028  13.8878 0012860  67.9584 292.2964 14.32889172470514
KITSAT B
1 22825U 93061C   18075.51266809 -.00000007  00000-0  15160-4 0  9991
2 22825  98.8527  49.9986 0007353 255.5816 104.4550 14.30024233276326
POSAT 1
1 22826U 93061D   18075.48097798  .00000001  00000-0  18108-4 0  9995
2 22826  98.8469  50.0158 0007928 244.3237 115.7126 14.30355281276501
RADIO ROSTO
1 23439U 94085A   18074.59454313 -.00000037 +00000-0 +16943-3 0  9998
2 23439 064.8153 140.2019 0160462 198.8907 272.5697 11.27566645956010
JAS 2
1 24278U 96046B   18074.91132691 -.00000003 +00000-0 +34069-4 0  9990
2 24278 098.5262 286.4718 0350277 353.1018 006.5370 13.53081941065375
TECHSAT 1B
1 25397U 98043D   18074.83750428 -.00000017 +00000-0 +11585-4 0  9990
2 25397 098.6416 016.8639 0000535 353.7977 006.3195 14.23641394022228
ISS (ZARYA)
1 25544U 98067A   18075.56408450  .00000388  00000-0  13110-4 0  9992
2 25544  51.6410 120.4611 0002181 196.1528 285.7958 15.54095351104117
PCSAT
1 26931U 01043C   18074.52716637  .00000002  00000-0  32493-4 0  9993
2 26931  67.0500 111.0818 0006478 282.9684  77.0694 14.30496971859150
SAUDISAT 1C
1 27607U 02058C   18074.94716067  .00000030  00000-0  24942-4 0  9995
2 27607  64.5570  15.0307 0054339 350.2350   9.7690 14.75428477819209
CUTE-1
1 27844U 03031E   18074.94521014 +.00000070 +00000-0 +51239-4 0  9999
2 27844 098.6893 084.9671 0008655 282.8175 077.2035 14.22099739762906
CUBESAT XI 4
1 27848U 03031J   18074.94901692 +.00000042 +00000-0 +39059-4 0  9992
2 27848 098.6980 085.3368 0008610 294.1945 065.8332 14.21705449762787
MOZHAYETS 4
1 27939U 03042A   18075.53239681  .00000141  00000-0  33870-4 0  9998
2 27939  97.9742 217.1421 0014323  83.7769 349.0950 14.66665231773233
CUBESAT XI 5
1 28895U 05043F   18074.95310885 +.00000147 +00000-0 +37092-4 0  9990
2 28895 097.8942 230.2574 0016845 009.0963 351.0542 14.63518585660005
CUTE-1.7+APD II
1 32785U 08021C   18074.78420999  .00000266  00000-0  34480-4 0  9991
2 32785  97.5520  91.4010 0012850 355.2026   4.9066 14.88076410535286
DELFI C3
1 32789U 08021G   18074.69060217 +.00001631 +00000-0 +11651-3 0  9999
2 32789 097.5242 131.8286 0011034 253.7699 106.2315 15.05819178537614
SEEDS
1 32791U 08021J   18074.68893735  .00000357  00000-0  41906-4 0  9991
2 32791  97.5430  96.4496 0012630 336.0764  23.9866 14.90487918535582
YUBELEINY
1 32953U 08025A   18075.48228066  .00000015  00000-0  32981-4 0  9997
2 32953  82.4997  70.3288 0020201  54.2353 306.0601 12.43082323445252
PRISM (HITOMI)
1 33493U 09002B   18075.47484086  .00001213  00000-0  11333-3 0  9996
2 33493  98.1400 333.9668 0013523 263.9872  95.9812 14.96114546496481
KKS-1 (KISEKI)
1 33499U 09002H   18074.92294115 +.00000117 +00000-0 +25306-4 0  9991
2 33499 098.3516 253.6765 0008331 223.9135 136.1411 14.75303019491000
SWISSCUBE
1 35932U 09051B   18074.91605424  .00000149  00000-0  44641-4 0  9995
2 35932  98.5301 223.9093 0008659 132.0058 228.1877 14.56130449449868
BEESAT
1 35933U 09051C   18074.95001302 +.00000127 +00000-0 +39656-4 0  9991
2 35933 098.5341 225.4313 0006688 141.7803 218.3869 14.56237769449898
ITUPSAT 1
1 35935U 09051E   18074.95220570  .00000114  00000-0  37215-4 0  9998
2 35935  98.5452 225.6877 0009039 139.2153 220.9721 14.55418260449761
XIWANG-1 (HOPE-1)
1 36122U 09072B   18075.51441111 -.00000042  00000-0 -54755-6 0  9991
2 36122 100.0820  94.4623 0007110 331.3132  28.7590 13.16343852396454
TISAT 1
1 36799U 10035E   18075.42264020  .00000450  00000-0  51832-4 0  9996
2 36799  98.0909 209.2679 0013183 148.2833 211.9181 14.90721071416333
JUGNU
1 37839U 11058B   18074.90365500  .00000332  00000-0  35393-4 0  9998
2 37839  19.9611 242.9027 0019055 298.5739 193.0944 14.12612464332164
SRMSAT
1 37841U 11058D   18075.00544131  .00000324  00000-0  33001-4 0  9997
2 37841  19.9724 289.5687 0011790 186.9146 326.5103 14.10600758331712
M-CUBED/EXP-1 PRIME
1 37855U 11061F   18074.95736140 +.00002468 +00000-0 +13363-3 0  9991
2 37855 101.7251 089.7777 0177304 358.2090 001.8465 15.04162112347169
HORYU 2
1 38340U 12025D   18074.69650649  .00000209  00000-0  38833-4 0  9993
2 38340  98.3730  93.1774 0012386 143.7005 216.5045 14.75511829313329
STRAND 1
1 39090U 13009E   18074.88702080 +.00000052 +00000-0 +33742-4 0  9997
2 39090 098.5309 282.4350 0008594 208.4081 151.6636 14.35014664264420
SOMP
1 39134U 13015E   18075.10880425  .00001638  00000-0  87330-4 0  9992
2 39134  64.8635  67.9402 0021629 222.6836 137.2612 15.18893637270766
BEESAT 3
1 39135U 13015F   18075.44112902  .00001551  00000-0  88795-4 0  9998
2 39135  64.8679  79.0315 0026904 246.7783 113.0509 15.16459018270587
BEESAT 2
1 39136U 13015G   18074.98269844  .00001179  00000-0  70907-4 0  9997
2 39136  64.8683  83.0452 0027705 246.1888 113.6333 15.15934964270465
CUBEBUG 1
1 39153U 13018D   18075.30297002  .00000250  00000-0  39693-4 0  9999
2 39153  97.9771 171.1096 0015777 244.9142 115.0433 14.80353827263842
ZACUBE
1 39417U 13066B   18075.13956710  .00000272  00000-0  40564-4 0  9997
2 39417  97.5977 108.6978 0060686  99.8290 260.9783 14.80889870233020
TRITON 1
1 39427U 13066M   18074.96529018 +.00000153 +00000-0 +32510-4 0  9995
2 39427 097.6391 077.0865 0113687 197.3531 162.3776 14.67621574230718
GOMX 1
1 39430U 13066Q   18075.51676943  .00000182  00000-0  42403-4 0  9995
2 39430  97.6893  59.1135 0150158 263.0591  95.3509 14.59038286229632
HUMSAT D
1 39433U 13066T   18074.80761666 +.00000335 +00000-0 +38372-4 0  9996
2 39433 097.6159 134.4020 0031765 036.1468 324.1890 14.91773588234509
50 SAT
1 39436U 13066W   18075.31209270  .00168271  00000-0  17325-2 0  9991
2 39436  97.7129 204.2363 0004772 205.4894 154.6130 15.64292851238741
CUBEBUG 2
1 39440U 13066AA  18074.70124071  .00000226  00000-0  38396-4 0  9991
2 39440  97.6076  95.4642 0081639 138.3799 222.3664 14.75624673232135
FUNCUBE 1
1 39444U 13066AE  18074.91389082 +.00000315 +00000-0 +45254-4 0  9993
2 39444 097.5989 109.8905 0059866 096.4298 264.3737 14.81656968231256
UWE-3
1 39446U 13066AG  18075.01948580  .00000263  00000-0  41546-4 0  9993
2 39446  97.6013 101.8064 0071666 119.1026 241.7386 14.78158497231359
SPROUT
1 39770U 14029E   18075.51748476  .00000834  00000-0  99885-4 0  9993
2 39770  97.8716 177.3735 0009915 145.5432 214.6442 14.86715077206598
UNISAT 6
1 40012U 14033C   18074.86152481 +.00000215 +00000-0 +39528-4 0  9992
2 40012 097.8225 314.5181 0059363 138.8245 221.7465 14.73775954200957
DUCHIFAT 1
1 40021U 14033M   18074.72960618  .00000518  00000-0  59225-4 0  9998
2 40021  97.9174 353.2807 0014103 122.8665 237.3912 14.90222605203039
QB50P1
1 40025U 14033R   18074.71938276  .00000332  00000-0  41587-4 0  9992
2 40025  97.9082 350.3000 0013550 128.4162 231.8273 14.88653532202888
CHUBUSAT 1
1 40300U 14070C   18075.49295076  .00000619  00000-0  30540-4 0  9994
2 40300  97.3703 155.1513 0018831 224.6052 233.8956 15.21424365186184
NUDT-PHONESAT
1 40900U 15049B   18075.48583839  .00003182  00000-0  14676-3 0  9992
2 40900  97.4429  84.8244 0013472   1.6745 358.4533 15.20906737137822
ZDPS 2A
1 40901U 15049C   18075.53403726  .00001217  00000-0  65058-4 0  9993
2 40901  97.4602  83.3335 0013900   7.1557 352.9872 15.16909865137611
ZDPS 2B
1 40902U 15049D   18075.49534266  .00001144  00000-0  61664-4 0  9991
2 40902  97.4494  81.4722 0013876   4.3420 355.7931 15.16712835137593
XW-2A
1 40903U 15049E   18075.53826474  .00002786  00000-0  71511-4 0  9997
2 40903  97.3951 109.4366 0014547  11.9460 348.2128 15.40114119139540
KAITUO 1A
1 40904U 15049F   18075.55478041  .00000856  00000-0  49400-4 0  9991
2 40904  97.4591  80.8758 0015315   6.1094 152.0112 15.14917865137476
OBJECT G
1 40905U 15049G   18075.48420262  .00000604  00000-0  36928-4 0  9998
2 40905  97.4583  79.0365 0015714 357.8453   2.2708 15.13885098137399
XW-2C
1 40906U 15049H   18075.52811969  .00000894  00000-0  51206-4 0  9999
2 40906  97.4602  80.7263 0014946 357.7434   2.3728 15.15057107137467
XW-2D
1 40907U 15049J   18075.48951415  .00000998  00000-0  56592-4 0  9994
2 40907  97.4574  80.3972 0014263 356.0747   4.0371 15.15198525137463
LILACSAT 2
1 40908U 15049K   18075.51809916  .00000480  00000-0  30469-4 0  9998
2 40908  97.4684  79.9015 0015889 355.9942   4.1160 15.13431455137353
XW-2F
1 40910U 15049M   18075.50910533  .00001464  00000-0  78786-4 0  9995
2 40910  97.4581  81.5646 0014860 351.8677   8.2313 15.16325131137417
XW-2B
1 40911U 15049N   18075.50369525  .00000942  00000-0  53645-4 0  9992
2 40911  97.4612  80.9129 0014170 356.5765   3.5368 15.15146085137366
